Wetterdaten: Freitag, 12.03.2010
Datum Zeit Temp. A. Feuchte A. Luftdruck Regen Wind Richtung Richtung Sonnenschein UV Solar Windben
12.03.2010 00:00 -0,8 C 87 % 1017,4 hPa 0,0 mm 1,6 km/h (1 Bft) W-SW 247 0 min 0 UV-I 0 W/m 4,8 km/h (1 Bft)
12.03.2010 00:10 -0,8 C 87 % 1017,3 hPa 0,0 mm 0,0 km/h (0 Bft) W-SW 247 0 min 0 UV-I 0 W/m 4,8 km/h (1 Bft)
12.03.2010 00:20 -0,8 C 87 % 1017,2 hPa 0,0 mm 0,0 km/h (0 Bft) W-SW 247 0 min 0 UV-I 0 W/m 4,8 km/h (1 Bft)
12.03.2010 00:30 -0,8 C 87 % 1017,1 hPa 0,0 mm 0,0 km/h (0 Bft) W-SW 247 0 min 0 UV-I 0 W/m 3,2 km/h (1 Bft)
12.03.2010 00:40 -0,8 C 88 % 1017,1 hPa 0,0 mm 0,0 km/h (0 Bft) W-SW 247 0 min 0 UV-I 0 W/m 3,2 km/h (1 Bft)
12.03.2010 00:50 -0,8 C 88 % 1017,1 hPa 0,0 mm 0,0 km/h (0 Bft) W-SW 247 0 min 0 UV-I 0 W/m 1,6 km/h (1 Bft)
12.03.2010 01:00 -0,8 C 88 % 1017,0 hPa 0,0 mm 0,0 km/h (0 Bft) W-SW 247 0 min 0 UV-I 0 W/m 1,6 km/h (1 Bft)
12.03.2010 01:10 -0,8 C 88 % 1017,1 hPa 0,0 mm 0,0 km/h (0 Bft) W-SW 247 0 min 0 UV-I 0 W/m 1,6 km/h (1 Bft)
12.03.2010 01:20 -0,8 C 88 % 1016,9 hPa 0,0 mm 0,0 km/h (0 Bft) W-SW 247 0 min 0 UV-I 0 W/m 1,6 km/h (1 Bft)
12.03.2010 01:30 -0,8 C 88 % 1017,0 hPa 0,0 mm 0,0 km/h (0 Bft) W-SW 247 0 min 0 UV-I 0 W/m 1,6 km/h (1 Bft)
12.03.2010 01:40 -0,8 C 88 % 1016,9 hPa 0,0 mm 0,0 km/h (0 Bft) W-SW 247 0 min 0 UV-I 0 W/m 1,6 km/h (1 Bft)
12.03.2010 01:50 -0,8 C 88 % 1016,8 hPa 0,0 mm 0,0 km/h (0 Bft) W-SW 247 0 min 0 UV-I 0 W/m 1,6 km/h (1 Bft)
12.03.2010 02:00 -0,7 C 89 % 1016,8 hPa 0,0 mm 0,0 km/h (0 Bft) W-SW 247 0 min 0 UV-I 0 W/m 1,6 km/h (1 Bft)
12.03.2010 02:10 -0,7 C 89 % 1016,8 hPa 0,0 mm 0,0 km/h (0 Bft) W-SW 247 0 min 0 UV-I 0 W/m 1,6 km/h (1 Bft)
12.03.2010 02:20 -0,6 C 89 % 1016,7 hPa 0,0 mm 0,0 km/h (0 Bft) W-SW 247 0 min 0 UV-I 0 W/m 3,2 km/h (1 Bft)
12.03.2010 02:30 -0,6 C 89 % 1016,6 hPa 0,0 mm 0,0 km/h (0 Bft) W-SW 247 0 min 0 UV-I 0 W/m 3,2 km/h (1 Bft)
12.03.2010 02:40 -0,6 C 89 % 1016,5 hPa 0,0 mm 0,0 km/h (0 Bft) W-SW 247 0 min 0 UV-I 0 W/m 1,6 km/h (1 Bft)
12.03.2010 02:50 -0,6 C 89 % 1016,3 hPa 0,0 mm 0,0 km/h (0 Bft) W-SW 247 0 min 0 UV-I 0 W/m 3,2 km/h (1 Bft)
12.03.2010 03:00 -0,5 C 89 % 1016,4 hPa 0,0 mm 0,0 km/h (0 Bft) W-SW 247 0 min 0 UV-I 0 W/m 4,8 km/h (1 Bft)
12.03.2010 03:10 -0,4 C 90 % 1016,3 hPa 0,0 mm 0,0 km/h (0 Bft) W-SW 247 0 min 0 UV-I 0 W/m 4,8 km/h (1 Bft)
12.03.2010 03:20 -0,4 C 90 % 1016,3 hPa 0,0 mm 0,0 km/h (0 Bft) W-SW 247 0 min 0 UV-I 0 W/m 1,6 km/h (1 Bft)
12.03.2010 03:30 -0,4 C 90 % 1016,3 hPa 0,0 mm 0,0 km/h (0 Bft) W-SW 247 0 min 0 UV-I 0 W/m 1,6 km/h (1 Bft)
12.03.2010 03:40 -0,4 C 90 % 1016,2 hPa 0,0 mm 0,0 km/h (0 Bft) W-SW 247 0 min 0 UV-I 0 W/m 3,2 km/h (1 Bft)
12.03.2010 03:50 -0,4 C 90 % 1016,1 hPa 0,0 mm 0,0 km/h (0 Bft) W-SW 247 0 min 0 UV-I 0 W/m 3,2 km/h (1 Bft)
12.03.2010 04:00 -0,4 C 91 % 1016,1 hPa 0,0 mm 0,0 km/h (0 Bft) W-SW 247 0 min 0 UV-I 0 W/m 1,6 km/h (1 Bft)
12.03.2010 04:10 -0,4 C 91 % 1016,1 hPa 0,0 mm 0,0 km/h (0 Bft) W-SW 247 0 min 0 UV-I 0 W/m 1,6 km/h (1 Bft)
12.03.2010 04:20 -0,4 C 91 % 1016,0 hPa 0,0 mm 0,0 km/h (0 Bft) N 0 0 min 0 UV-I 0 W/m 0,0 km/h (0 Bft)
12.03.2010 04:30 -0,3 C 91 % 1016,1 hPa 0,0 mm 0,0 km/h (0 Bft) W-SW 247 0 min 0 UV-I 0 W/m 1,6 km/h (1 Bft)
12.03.2010 04:40 -0,3 C 91 % 1016,1 hPa 0,0 mm 0,0 km/h (0 Bft) W-SW 247 0 min 0 UV-I 0 W/m 3,2 km/h (1 Bft)
12.03.2010 04:50 -0,3 C 91 % 1016,0 hPa 0,0 mm 0,0 km/h (0 Bft) W-SW 247 0 min 0 UV-I 0 W/m 1,6 km/h (1 Bft)
12.03.2010 05:00 -0,2 C 91 % 1016,1 hPa 0,0 mm 0,0 km/h (0 Bft) W-SW 247 0 min 0 UV-I 0 W/m 3,2 km/h (1 Bft)
12.03.2010 05:10 -0,2 C 92 % 1016,1 hPa 0,0 mm 0,0 km/h (0 Bft) W-SW 247 0 min 0 UV-I 0 W/m 1,6 km/h (1 Bft)
12.03.2010 05:20 -0,2 C 92 % 1016,0 hPa 0,0 mm 0,0 km/h (0 Bft) W-SW 247 0 min 0 UV-I 0 W/m 3,2 km/h (1 Bft)
12.03.2010 05:30 -0,1 C 92 % 1016,1 hPa 0,0 mm 0,0 km/h (0 Bft) W-SW 247 0 min 0 UV-I 0 W/m 3,2 km/h (1 Bft)
12.03.2010 05:40 0,0 C 92 % 1016,1 hPa 0,0 mm 0,0 km/h (0 Bft) W-SW 247 0 min 0 UV-I 0 W/m 1,6 km/h (1 Bft)
12.03.2010 05:50 0,1 C 92 % 1016,1 hPa 0,0 mm 0,0 km/h (0 Bft) W-SW 247 0 min 0 UV-I 0 W/m 1,6 km/h (1 Bft)
12.03.2010 06:00 0,1 C 92 % 1016,1 hPa 0,0 mm 0,0 km/h (0 Bft) W-SW 247 0 min 0 UV-I 0 W/m 3,2 km/h (1 Bft)
12.03.2010 06:10 0,2 C 92 % 1016,1 hPa 0,0 mm 0,0 km/h (0 Bft) W-SW 247 0 min 0 UV-I 0 W/m 3,2 km/h (1 Bft)
12.03.2010 06:20 0,2 C 92 % 1016,1 hPa 0,0 mm 0,0 km/h (0 Bft) W-SW 247 0 min 0 UV-I 0 W/m 1,6 km/h (1 Bft)
12.03.2010 06:30 0,3 C 92 % 1016,2 hPa 0,0 mm 0,0 km/h (0 Bft) W-SW 247 0 min 0 UV-I 0 W/m 3,2 km/h (1 Bft)
12.03.2010 06:40 0,3 C 92 % 1016,3 hPa 0,0 mm 0,0 km/h (0 Bft) W-SW 247 0 min 0 UV-I 0 W/m 3,2 km/h (1 Bft)
12.03.2010 06:50 0,4 C 92 % 1016,3 hPa 0,0 mm 0,0 km/h (0 Bft) W-SW 247 0 min 0 UV-I 0 W/m 3,2 km/h (1 Bft)
12.03.2010 07:00 0,4 C 92 % 1016,3 hPa 0,0 mm 0,0 km/h (0 Bft) W-SW 247 0 min 0 UV-I 0 W/m 1,6 km/h (1 Bft)
12.03.2010 07:10 0,5 C 92 % 1016,3 hPa 0,0 mm 0,0 km/h (0 Bft) W-SW 247 0 min 0 UV-I 0 W/m 3,2 km/h (1 Bft)
12.03.2010 07:20 0,6 C 93 % 1016,4 hPa 0,0 mm 0,0 km/h (0 Bft) W-SW 247 0 min 0 UV-I 0 W/m 3,2 km/h (1 Bft)
12.03.2010 07:30 0,6 C 93 % 1016,5 hPa 0,0 mm 1,6 km/h (1 Bft) W-SW 247 0 min 0 UV-I 5 W/m 6,4 km/h (2 Bft)
12.03.2010 07:40 0,7 C 93 % 1016,6 hPa 0,0 mm 1,6 km/h (1 Bft) W-SW 247 0 min 0 UV-I 9 W/m 8,0 km/h (2 Bft)
12.03.2010 07:50 0,8 C 93 % 1016,6 hPa 0,0 mm 1,6 km/h (1 Bft) W-SW 247 0 min 0 UV-I 11 W/m 6,4 km/h (2 Bft)
12.03.2010 08:00 0,8 C 93 % 1016,7 hPa 0,0 mm 1,3 km/h (1 Bft) W 259 0 min 0 UV-I 14 W/m 3,2 km/h (1 Bft)
12.03.2010 08:10 0,9 C 93 % 1016,8 hPa 0,0 mm 1,6 km/h (1 Bft) W-SW 247 0 min 0 UV-I 21 W/m 6,4 km/h (2 Bft)
12.03.2010 08:20 1,0 C 93 % 1016,9 hPa 0,0 mm 1,6 km/h (1 Bft) W-SW 247 0 min 0 UV-I 32 W/m 6,4 km/h (2 Bft)
12.03.2010 08:30 1,1 C 93 % 1017,0 hPa 0,0 mm 1,6 km/h (1 Bft) W-SW 247 0 min 0 UV-I 63 W/m 6,4 km/h (2 Bft)
12.03.2010 08:40 1,3 C 93 % 1017,1 hPa 0,0 mm 3,2 km/h (1 Bft) W-SW 247 0 min 0 UV-I 62 W/m 9,7 km/h (2 Bft)
12.03.2010 08:50 1,3 C 93 % 1017,1 hPa 0,0 mm 3,2 km/h (1 Bft) W-SW 247 0 min 0 UV-I 53 W/m 11,3 km/h (2 Bft)
12.03.2010 09:00 1,3 C 93 % 1017,2 hPa 0,0 mm 3,2 km/h (1 Bft) W-SW 247 0 min 0 UV-I 74 W/m 11,3 km/h (2 Bft)
12.03.2010 09:10 1,4 C 93 % 1017,3 hPa 0,0 mm 3,2 km/h (1 Bft) W-SW 247 0 min 1 UV-I 95 W/m 9,7 km/h (2 Bft)
12.03.2010 09:20 1,6 C 92 % 1017,2 hPa 0,0 mm 3,2 km/h (1 Bft) W-SW 247 0 min 1 UV-I 134 W/m 11,3 km/h (2 Bft)
12.03.2010 09:30 1,8 C 92 % 1017,3 hPa 0,0 mm 1,6 km/h (1 Bft) W-SW 247 10 min 1 UV-I 221 W/m 8,0 km/h (2 Bft)
12.03.2010 09:40 2,0 C 92 % 1017,3 hPa 0,0 mm 1,6 km/h (1 Bft) SW 225 0 min 1 UV-I 121 W/m 6,4 km/h (2 Bft)
12.03.2010 09:50 2,1 C 92 % 1017,4 hPa 0,0 mm 3,2 km/h (1 Bft) W-SW 247 0 min 1 UV-I 83 W/m 9,7 km/h (2 Bft)
12.03.2010 10:00 2,1 C 91 % 1017,4 hPa 0,0 mm 1,6 km/h (1 Bft) W-SW 247 0 min 0 UV-I 84 W/m 6,4 km/h (2 Bft)
12.03.2010 10:10 2,1 C 91 % 1017,5 hPa 0,0 mm 0,0 km/h (0 Bft) W-SW 247 0 min 1 UV-I 97 W/m 4,8 km/h (1 Bft)
12.03.2010 10:20 2,1 C 91 % 1017,6 hPa 0,0 mm 1,6 km/h (1 Bft) W-SW 247 0 min 1 UV-I 104 W/m 9,7 km/h (2 Bft)
12.03.2010 10:30 2,1 C 91 % 1017,6 hPa 0,3 mm 3,2 km/h (1 Bft) W-SW 247 0 min 1 UV-I 111 W/m 8,0 km/h (2 Bft)
12.03.2010 10:40 2,2 C 90 % 1017,6 hPa 0,3 mm 3,2 km/h (1 Bft) W-SW 247 0 min 1 UV-I 104 W/m 8,0 km/h (2 Bft)
12.03.2010 10:50 2,2 C 90 % 1017,6 hPa 0,0 mm 3,2 km/h (1 Bft) W-SW 247 0 min 1 UV-I 102 W/m 9,7 km/h (2 Bft)
12.03.2010 11:00 2,2 C 90 % 1017,7 hPa 0,0 mm 1,6 km/h (1 Bft) W 270 0 min 1 UV-I 113 W/m 9,7 km/h (2 Bft)
12.03.2010 11:10 2,3 C 90 % 1017,7 hPa 0,3 mm 3,2 km/h (1 Bft) W 270 0 min 1 UV-I 120 W/m 9,7 km/h (2 Bft)
12.03.2010 11:20 2,4 C 90 % 1017,8 hPa 0,0 mm 3,2 km/h (1 Bft) W-SW 247 0 min 1 UV-I 120 W/m 11,3 km/h (2 Bft)
12.03.2010 11:30 2,5 C 89 % 1017,9 hPa 0,3 mm 3,2 km/h (1 Bft) W-SW 247 0 min 1 UV-I 118 W/m 8,0 km/h (2 Bft)
12.03.2010 11:40 2,6 C 89 % 1017,9 hPa 0,0 mm 1,6 km/h (1 Bft) W-SW 247 0 min 1 UV-I 118 W/m 8,0 km/h (2 Bft)
12.03.2010 11:50 2,7 C 89 % 1017,9 hPa 0,0 mm 1,6 km/h (1 Bft) W-SW 247 0 min 1 UV-I 135 W/m 9,7 km/h (2 Bft)
12.03.2010 12:00 2,7 C 89 % 1017,9 hPa 0,0 mm 3,2 km/h (1 Bft) W-SW 247 0 min 1 UV-I 160 W/m 9,7 km/h (2 Bft)
12.03.2010 12:10 2,8 C 88 % 1017,8 hPa 0,3 mm 3,2 km/h (1 Bft) W 270 0 min 1 UV-I 199 W/m 9,7 km/h (2 Bft)
12.03.2010 12:20 3,1 C 88 % 1017,7 hPa 0,0 mm 1,6 km/h (1 Bft) W-SW 247 0 min 1 UV-I 216 W/m 6,4 km/h (2 Bft)
12.03.2010 12:30 3,4 C 86 % 1017,7 hPa 0,0 mm 3,2 km/h (1 Bft) W-SW 247 0 min 1 UV-I 195 W/m 14,5 km/h (3 Bft)
12.03.2010 12:40 3,5 C 86 % 1017,6 hPa 0,3 mm 1,6 km/h (1 Bft) W 270 0 min 1 UV-I 179 W/m 8,0 km/h (2 Bft)
12.03.2010 12:50 3,6 C 85 % 1017,6 hPa 0,0 mm 1,6 km/h (1 Bft) W-SW 247 0 min 1 UV-I 176 W/m 8,0 km/h (2 Bft)
12.03.2010 13:00 3,5 C 84 % 1017,6 hPa 0,0 mm 4,8 km/h (1 Bft) W-SW 247 0 min 1 UV-I 171 W/m 16,1 km/h (3 Bft)
12.03.2010 13:10 3,5 C 84 % 1017,6 hPa 0,0 mm 4,8 km/h (1 Bft) W-SW 247 0 min 1 UV-I 163 W/m 11,3 km/h (2 Bft)
12.03.2010 13:20 3,5 C 83 % 1017,6 hPa 0,0 mm 3,2 km/h (1 Bft) W 270 0 min 1 UV-I 158 W/m 9,7 km/h (2 Bft)
12.03.2010 13:30 3,6 C 83 % 1017,6 hPa 0,0 mm 4,8 km/h (1 Bft) W 270 0 min 1 UV-I 156 W/m 14,5 km/h (3 Bft)
12.03.2010 13:40 3,7 C 83 % 1017,4 hPa 0,0 mm 3,2 km/h (1 Bft) SW 225 0 min 1 UV-I 153 W/m 9,7 km/h (2 Bft)
12.03.2010 13:50 3,7 C 83 % 1017,4 hPa 0,0 mm 3,2 km/h (1 Bft) W 270 0 min 1 UV-I 142 W/m 9,7 km/h (2 Bft)
12.03.2010 14:00 3,7 C 83 % 1017,3 hPa 0,0 mm 1,6 km/h (1 Bft) W-SW 247 0 min 1 UV-I 158 W/m 8,0 km/h (2 Bft)
12.03.2010 14:10 3,9 C 83 % 1017,4 hPa 0,3 mm 3,2 km/h (1 Bft) SW 225 0 min 1 UV-I 204 W/m 8,0 km/h (2 Bft)
12.03.2010 14:20 4,1 C 82 % 1017,4 hPa 0,0 mm 4,8 km/h (1 Bft) W-SW 247 0 min 1 UV-I 241 W/m 14,5 km/h (3 Bft)
12.03.2010 14:30 4,3 C 82 % 1017,3 hPa 0,0 mm 3,2 km/h (1 Bft) SW 225 0 min 1 UV-I 239 W/m 12,9 km/h (3 Bft)
12.03.2010 14:40 4,6 C 81 % 1017,2 hPa 0,0 mm 1,6 km/h (1 Bft) SW 225 0 min 1 UV-I 234 W/m 6,4 km/h (2 Bft)
12.03.2010 14:50 4,7 C 80 % 1017,3 hPa 0,0 mm 3,2 km/h (1 Bft) W 270 0 min 1 UV-I 232 W/m 11,3 km/h (2 Bft)
12.03.2010 15:00 4,8 C 79 % 1017,2 hPa 0,0 mm 4,8 km/h (1 Bft) W 270 0 min 1 UV-I 230 W/m 11,3 km/h (2 Bft)
12.03.2010 15:10 5,1 C 78 % 1017,2 hPa 0,0 mm 3,2 km/h (1 Bft) W-SW 247 0 min 1 UV-I 220 W/m 14,5 km/h (3 Bft)
12.03.2010 15:20 5,2 C 77 % 1017,2 hPa 0,0 mm 3,2 km/h (1 Bft) W 270 0 min 1 UV-I 185 W/m 16,1 km/h (3 Bft)
12.03.2010 15:30 5,1 C 75 % 1017,1 hPa 0,0 mm 6,4 km/h (2 Bft) W 270 0 min 1 UV-I 142 W/m 16,1 km/h (3 Bft)
12.03.2010 15:40 5,1 C 76 % 1017,2 hPa 0,0 mm 3,2 km/h (1 Bft) W 270 0 min 1 UV-I 120 W/m 14,5 km/h (3 Bft)
12.03.2010 15:50 5,0 C 76 % 1017,2 hPa 0,0 mm 6,4 km/h (2 Bft) W 270 0 min 1 UV-I 105 W/m 17,7 km/h (3 Bft)
12.03.2010 16:00 4,9 C 77 % 1017,2 hPa 0,0 mm 6,4 km/h (2 Bft) W-SW 250 0 min 0 UV-I 70 W/m 9,7 km/h (2 Bft)
12.03.2010 16:10 4,9 C 78 % 1017,3 hPa 0,0 mm 4,8 km/h (1 Bft) W-SW 247 0 min 0 UV-I 67 W/m 17,7 km/h (3 Bft)
12.03.2010 16:20 4,8 C 78 % 1017,3 hPa 0,0 mm 6,4 km/h (2 Bft) W 270 0 min 0 UV-I 54 W/m 16,1 km/h (3 Bft)
12.03.2010 16:30 4,7 C 79 % 1017,3 hPa 0,0 mm 4,8 km/h (1 Bft) W 270 0 min 0 UV-I 33 W/m 14,5 km/h (3 Bft)
12.03.2010 16:40 4,6 C 79 % 1017,3 hPa 0,0 mm 4,8 km/h (1 Bft) W-SW 247 0 min 0 UV-I 21 W/m 11,3 km/h (2 Bft)
12.03.2010 16:50 4,6 C 80 % 1017,3 hPa 0,0 mm 3,2 km/h (1 Bft) W-SW 247 0 min 0 UV-I 23 W/m 11,3 km/h (2 Bft)
12.03.2010 17:00 4,5 C 80 % 1017,2 hPa 0,0 mm 4,8 km/h (1 Bft) W-SW 247 0 min 0 UV-I 21 W/m 14,5 km/h (3 Bft)
12.03.2010 17:10 4,4 C 80 % 1017,3 hPa 0,0 mm 3,2 km/h (1 Bft) W-SW 247 0 min 0 UV-I 12 W/m 8,0 km/h (2 Bft)
12.03.2010 17:20 4,4 C 79 % 1017,3 hPa 0,0 mm 1,6 km/h (1 Bft) W-SW 247 0 min 0 UV-I 11 W/m 9,7 km/h (2 Bft)
12.03.2010 17:30 4,3 C 79 % 1017,4 hPa 0,0 mm 1,6 km/h (1 Bft) W-SW 247 0 min 0 UV-I 9 W/m 6,4 km/h (2 Bft)
12.03.2010 17:40 4,3 C 79 % 1017,5 hPa 0,0 mm 1,6 km/h (1 Bft) W 270 0 min 0 UV-I 7 W/m 6,4 km/h (2 Bft)
12.03.2010 17:50 4,3 C 79 % 1017,5 hPa 0,0 mm 1,6 km/h (1 Bft) W 270 0 min 0 UV-I 0 W/m 4,8 km/h (1 Bft)
12.03.2010 18:00 4,2 C 78 % 1017,6 hPa 0,0 mm 1,6 km/h (1 Bft) W-SW 247 0 min 0 UV-I 0 W/m 8,0 km/h (2 Bft)
12.03.2010 18:10 4,2 C 77 % 1017,6 hPa 0,0 mm 1,6 km/h (1 Bft) W-SW 247 0 min 0 UV-I 0 W/m 8,0 km/h (2 Bft)
12.03.2010 18:20 4,2 C 76 % 1017,8 hPa 0,0 mm 1,6 km/h (1 Bft) W-NW 292 0 min 0 UV-I 0 W/m 8,0 km/h (2 Bft)
12.03.2010 18:30 4,2 C 76 % 1017,9 hPa 0,0 mm 1,6 km/h (1 Bft) W-NW 292 0 min 0 UV-I 0 W/m 8,0 km/h (2 Bft)
12.03.2010 18:40 4,2 C 76 % 1018,1 hPa 0,0 mm 1,6 km/h (1 Bft) W-NW 292 0 min 0 UV-I 0 W/m 11,3 km/h (2 Bft)
12.03.2010 18:50 4,1 C 76 % 1018,1 hPa 0,0 mm 1,6 km/h (1 Bft) W 270 0 min 0 UV-I 0 W/m 8,0 km/h (2 Bft)
12.03.2010 19:00 4,2 C 76 % 1018,0 hPa 0,0 mm 3,2 km/h (1 Bft) W 270 0 min 0 UV-I 0 W/m 11,3 km/h (2 Bft)
12.03.2010 19:10 4,2 C 76 % 1018,0 hPa 0,0 mm 3,2 km/h (1 Bft) SW 225 0 min 0 UV-I 0 W/m 9,7 km/h (2 Bft)
12.03.2010 19:20 4,2 C 76 % 1018,0 hPa 0,0 mm 3,2 km/h (1 Bft) W-SW 247 0 min 0 UV-I 0 W/m 9,7 km/h (2 Bft)
12.03.2010 19:30 4,2 C 76 % 1018,1 hPa 0,0 mm 4,8 km/h (1 Bft) W-SW 247 0 min 0 UV-I 0 W/m 11,3 km/h (2 Bft)
12.03.2010 19:40 4,1 C 76 % 1018,1 hPa 0,0 mm 3,2 km/h (1 Bft) W-SW 247 0 min 0 UV-I 0 W/m 8,0 km/h (2 Bft)
12.03.2010 19:50 4,1 C 75 % 1018,2 hPa 0,0 mm 3,2 km/h (1 Bft) W 270 0 min 0 UV-I 0 W/m 14,5 km/h (3 Bft)
12.03.2010 20:00 4,1 C 74 % 1018,2 hPa 0,0 mm 4,8 km/h (1 Bft) SW 225 0 min 0 UV-I 0 W/m 14,5 km/h (3 Bft)
12.03.2010 20:10 4,1 C 74 % 1018,2 hPa 0,0 mm 4,8 km/h (1 Bft) SW 225 0 min 0 UV-I 0 W/m 16,1 km/h (3 Bft)
12.03.2010 20:20 4,1 C 73 % 1018,4 hPa 0,0 mm 4,8 km/h (1 Bft) W-SW 247 0 min 0 UV-I 0 W/m 14,5 km/h (3 Bft)
12.03.2010 20:30 4,0 C 74 % 1018,4 hPa 0,0 mm 3,2 km/h (1 Bft) W 270 0 min 0 UV-I 0 W/m 16,1 km/h (3 Bft)
12.03.2010 20:40 4,0 C 74 % 1018,5 hPa 0,0 mm 4,8 km/h (1 Bft) W-SW 247 0 min 0 UV-I 0 W/m 14,5 km/h (3 Bft)
12.03.2010 20:50 3,9 C 74 % 1018,5 hPa 0,0 mm 4,8 km/h (1 Bft) W-SW 247 0 min 0 UV-I 0 W/m 11,3 km/h (2 Bft)
12.03.2010 21:00 3,9 C 74 % 1018,5 hPa 0,0 mm 3,2 km/h (1 Bft) W-SW 247 0 min 0 UV-I 0 W/m 9,7 km/h (2 Bft)
12.03.2010 21:10 3,8 C 74 % 1018,5 hPa 0,0 mm 4,8 km/h (1 Bft) W-SW 247 0 min 0 UV-I 0 W/m 14,5 km/h (3 Bft)
12.03.2010 21:20 3,8 C 74 % 1018,6 hPa 0,0 mm 6,4 km/h (2 Bft) W-SW 247 0 min 0 UV-I 0 W/m 16,1 km/h (3 Bft)
12.03.2010 21:30 3,8 C 74 % 1018,6 hPa 0,0 mm 6,4 km/h (2 Bft) W-SW 247 0 min 0 UV-I 0 W/m 17,7 km/h (3 Bft)
12.03.2010 21:40 3,8 C 74 % 1018,7 hPa 0,0 mm 8,0 km/h (2 Bft) W-SW 247 0 min 0 UV-I 0 W/m 19,3 km/h (3 Bft)
12.03.2010 21:50 3,8 C 74 % 1018,7 hPa 0,0 mm 8,0 km/h (2 Bft) SW 225 0 min 0 UV-I 0 W/m 20,9 km/h (4 Bft)
12.03.2010 22:00 3,8 C 74 % 1018,8 hPa 0,0 mm 8,0 km/h (2 Bft) W-SW 247 0 min 0 UV-I 0 W/m 19,3 km/h (3 Bft)
12.03.2010 22:10 3,8 C 75 % 1018,8 hPa 0,0 mm 8,0 km/h (2 Bft) W 270 0 min 0 UV-I 0 W/m 22,5 km/h (4 Bft)
12.03.2010 22:20 3,8 C 75 % 1018,8 hPa 0,0 mm 8,0 km/h (2 Bft) W-SW 247 0 min 0 UV-I 0 W/m 20,9 km/h (4 Bft)
12.03.2010 22:30 3,7 C 75 % 1018,8 hPa 0,0 mm 4,8 km/h (1 Bft) W 270 0 min 0 UV-I 0 W/m 16,1 km/h (3 Bft)
12.03.2010 22:40 3,7 C 75 % 1018,9 hPa 0,0 mm 4,8 km/h (1 Bft) W 270 0 min 0 UV-I 0 W/m 14,5 km/h (3 Bft)
12.03.2010 22:50 3,7 C 75 % 1018,9 hPa 0,0 mm 8,0 km/h (2 Bft) W 270 0 min 0 UV-I 0 W/m 20,9 km/h (4 Bft)
12.03.2010 23:00 3,7 C 75 % 1018,9 hPa 0,0 mm 8,0 km/h (2 Bft) W-SW 247 0 min 0 UV-I 0 W/m 22,5 km/h (4 Bft)
12.03.2010 23:10 3,7 C 75 % 1018,9 hPa 0,0 mm 6,4 km/h (2 Bft) W-SW 247 0 min 0 UV-I 0 W/m 20,9 km/h (4 Bft)
12.03.2010 23:20 3,7 C 75 % 1019,0 hPa 0,0 mm 8,0 km/h (2 Bft) W 270 0 min 0 UV-I 0 W/m 19,3 km/h (3 Bft)
12.03.2010 23:30 3,6 C 76 % 1019,0 hPa 0,0 mm 6,4 km/h (2 Bft) W 270 0 min 0 UV-I 0 W/m 19,3 km/h (3 Bft)
12.03.2010 23:40 3,6 C 76 % 1019,0 hPa 0,0 mm 6,4 km/h (2 Bft) W 270 0 min 0 UV-I 0 W/m 20,9 km/h (4 Bft)
12.03.2010 23:50 3,6 C 76 % 1018,9 hPa 0,0 mm 6,4 km/h (2 Bft) W 270 0 min 0 UV-I 0 W/m 19,3 km/h (3 Bft)
_ Min-Zeit 00:00 20:20 04:20 - 00:10 - - - - - 04:20
Minimum _ -0,8 C 73 % 1016,0 hPa - 0,0 km/h (0 Bft) - - - - - 0,0 km/h (0 Bft)
_ Max-Zeit 15:20 07:20 23:20 10:30 21:40 - - 09:30 12:20 14:20 22:10
Maximum _ 5,2 C 93 % 1019,0 hPa 0,3 mm 8,0 km/h
W-SW (2 Bft)
- - 10 min 1 UV-I 241 W/m 22,5 km/h
W (4 Bft)
Durchschnitt _ 2,2 C 84 % 1017,4 hPa #1,8 mm 2,6 km/h (1 Bft) W-SW - #10 min. 1 UV-I 113 W/m 8,9 km/h (2 Bft)